Location: Newark
(15.4608°S, 41.1635°W)
Time: 16:20:50
(UTC+00:00)

Explorer 7 - All Passes

Search period start: 27 February 2021 00:00
Search period end: 09 March 2021 00:00
Orbit: 484 x 677 km, 50.3° (Epoch: 26 February)

Date Brightness Start Highest point End Pass type
(mag) Time Alt. Az. Time Alt. Az. Time Alt. Az.
27 Feb - 03:48:42 10° NNW 03:52:21 44° NE 03:56:12 10° SE night (unlit)
27 Feb - 05:31:19 10° WSW 05:32:58 12° SW 05:34:39 10° SSW night (unlit)
27 Feb - 14:02:55 10° SSW 14:07:49 68° SE 14:12:39 10° NE daylight
27 Feb - 15:47:07 10° WNW 15:48:02 10° WNW 15:48:57 10° NW daylight
28 Feb - 03:52:59 10° NW 03:56:48 80° SW 04:00:51 10° SE night (unlit)
28 Feb - 12:29:02 10° SSE 12:31:32 14° SE 12:34:01 10° ESE daylight
28 Feb - 14:07:26 10° SW 14:12:18 64° NW 14:17:07 10° NNE daylight
01 Mar - 02:19:51 10° NE 02:21:14 12° NE 02:22:38 10° ENE night (unlit)
01 Mar - 03:57:47 10° WNW 04:01:21 36° SW 04:05:06 10° SSE night (unlit)
01 Mar - 12:32:17 10° S 12:36:12 24° SE 12:40:09 10° E daylight
01 Mar - 14:12:21 10° WSW 14:16:45 33° NW 14:21:05 10° N daylight
02 Mar - 02:22:30 10° N 02:25:37 25° NE 02:28:50 10° ESE night (unlit)
02 Mar - 04:03:13 10° W 04:05:59 18° SW 04:08:50 10° S night (unlit)
02 Mar - 12:36:10 10° SSW 12:40:48 42° SE 12:45:27 10° ENE daylight
02 Mar - 14:17:54 10° W 14:21:09 18° NW 14:24:22 10° NNW daylight
03 Mar - 02:26:20 10° NNW 02:30:02 55° NE 02:33:52 10° SE night (unlit)
03 Mar - 12:40:26 10° SW 12:45:20 80° SE 12:50:14 10° NE daylight
04 Mar - 02:30:47 10° NW 02:34:30 64° SW 02:38:24 10° SSE night (unlit)
04 Mar - 11:06:12 10° S 11:09:06 16° SE 11:12:03 10° E daylight
04 Mar - 12:45:03 10° SW 12:49:47 53° NW 12:54:33 10° NNE daylight
05 Mar - 00:56:52 10° NNE 00:58:52 14° NE 01:00:55 10° E night (unlit)
05 Mar - 02:35:44 10° WNW 02:39:04 29° SW 02:42:31 10° SSE night (unlit)
05 Mar - 11:09:39 10° S 11:13:45 27° SE 11:17:54 10° ENE daylight
05 Mar - 12:50:04 10° WSW 12:54:13 28° NW 12:58:23 10° N daylight
06 Mar - 00:59:58 10° N 01:03:17 29° NE 01:06:38 10° ESE night (unlit)
06 Mar - 02:41:25 10° W 02:43:42 15° SW 02:46:01 10° S night (unlit)
06 Mar - 11:13:39 10° SSW 11:18:18 49° SE 11:23:03 10° NE daylight
06 Mar - 12:55:54 10° W 12:58:38 15° NW 13:01:21 10° NNW daylight
07 Mar - 01:04:00 10° NNW 01:07:42 69° NE 01:11:32 10° SE night (unlit)
07 Mar - 11:17:59 10° SW 11:22:48 87° NW 11:27:42 10° NE daylight
08 Mar - 01:08:33 10° NW 01:12:12 50° SW 01:15:56 10° SSE night (unlit)
08 Mar - 09:43:28 10° S 09:46:40 18° SE 09:49:55 10° E daylight
08 Mar - 11:22:41 10° SW 11:27:16 44° NW 11:31:55 10° NNE daylight
08 Mar - 23:34:02 10° NNE 23:36:31 17° NE 23:39:01 10° E night (unlit)
